Torna al catalogo

STARLINK-5467

AttivoComunicazioniVLEO
NORAD 55660·PAYLOAD·🇺🇸 United States

Lanciato Feb 17, 2023 da Vandenberg Space Force Base

Loading…

Prossimi Passaggi (prossime 24 ore)

TLE

AggiornatoSource: CelesTrak SupGP

Epoca: Sep 14, 2026, 22:23 UTC

1 55660C 23021AJ  26257.93312500 -.00003757  00000+0 -31478-3 0  2571
2 55660  70.0019  47.1468 0002972 271.3869 156.0642 14.98340220    15

Traccia STARLINK-5467 in tempo reale con AllMySat

Download on the App Store